Date String (YYYY-MM-DD hh:mm:ss) UTC,Instrument flags,Ambient pressure (hPa),Sample flow (lpm),Bypass flow (lpm),Sample temperature (°C),Ambient temperature (°C),ASC tube jacket temperature (°C),LED temperature (°C),Box temperature (°C),Sample RH (%),Span deviation,Mass concentration (μg/m³),Mass concentration (μg/m³),Mass concentration (μg/m³)
DateTimeUTC,F1_M11,P_M11,Q1_M11,Q2_M11,T1_M11,T2_M11,T3_M11,T4_M11,T5_M11,U1_M11,ZSPAN_M11,X0_M11,X2_M11,X1_M11
2022-02-25 16:00:00,,0830.4,5.01,0.00,21.8,21.1,00.0,30.8,23.4,06.4,0000.5,0018.18,0012.45,0011.73
2022-02-25 16:01:00,,0830.5,5.00,0.00,21.7,20.8,00.0,30.7,23.3,06.6,0000.6,0018.28,0012.53,0011.80
2022-02-25 16:02:00,,0830.5,5.00,0.00,21.7,20.7,00.0,30.7,23.2,06.7,0000.5,0018.32,0012.58,0011.87
2022-02-25 16:03:00,,0830.4,4.99,0.00,21.6,20.7,00.0,30.7,23.2,06.6,0000.7,0018.23,0012.64,0011.94
2022-02-25 16:04:00,,0830.4,5.01,0.00,21.6,20.7,00.0,30.7,23.2,06.6,0000.6,0018.29,0012.75,0012.04
2022-02-25 16:05:00,,0830.4,5.00,0.00,21.6,20.7,00.0,30.7,23.2,06.6,0000.4,0018.14,0012.79,0012.12
2022-02-25 16:06:00,,0830.5,5.00,0.00,21.6,20.7,00.0,30.6,23.2,06.6,0000.0,0017.83,0012.83,0012.18
2022-02-25 16:07:00,,0830.6,5.01,0.00,21.6,20.7,00.0,30.6,23.2,06.7,-000.4,0017.78,0012.87,0012.23
2022-02-25 16:08:00,,0830.6,5.01,0.00,21.5,20.7,00.0,30.6,23.2,06.6,-000.8,0017.88,0012.94,0012.28
2022-02-25 16:09:00,,0830.6,5.00,0.00,21.5,20.6,00.0,30.6,23.2,06.7,-000.8,0017.97,0012.99,0012.34
2022-02-25 16:10:00,,0830.6,5.00,0.00,21.5,20.6,00.0,30.6,23.1,06.7,-000.6,0017.77,0013.10,0012.43
2022-02-25 16:11:00,,0830.5,5.00,0.00,21.5,20.4,00.0,30.6,23.0,06.7,-000.6,0017.87,0013.19,0012.53
2022-02-25 16:12:00,,0830.6,4.99,0.00,21.4,20.8,00.0,30.5,23.1,06.7,-000.6,0017.98,0013.30,0012.64
2022-02-25 16:13:00,,0830.6,5.02,0.00,21.6,22.1,00.0,30.6,23.4,06.7,-000.9,0018.13,0013.41,0012.76
2022-02-25 16:14:00,,0830.6,4.99,0.00,21.7,23.0,00.0,30.6,23.7,06.7,-001.0,0018.46,0013.56,0012.89
2022-02-25 16:15:00,,0830.6,4.99,0.00,21.9,22.8,00.0,30.7,23.8,06.7,-000.7,0018.54,0013.67,0013.03
2022-02-25 16:16:00,,0830.6,5.00,0.00,21.9,22.5,00.0,30.7,23.8,06.6,-000.6,0018.81,0013.87,0013.17
2022-02-25 16:17:00,,0830.5,4.99,0.00,21.9,22.1,00.0,30.7,23.7,06.6,-000.1,0019.12,0014.12,0013.38
2022-02-25 16:18:00,,0830.5,5.01,0.00,21.9,21.7,00.0,30.7,23.6,06.6,0000.2,0019.50,0014.41,0013.64
2022-02-25 16:19:00,,0830.5,5.01,0.00,21.8,21.5,00.0,30.7,23.6,06.7,0000.5,0019.92,0014.66,0013.88
2022-02-25 16:20:00,,0830.6,5.00,0.00,21.8,21.3,00.0,30.7,23.5,06.7,0000.4,0020.77,0014.95,0014.14
2022-02-25 16:21:00,,0830.6,4.99,0.00,21.8,21.1,00.0,30.7,23.5,06.7,0000.4,0021.26,0015.24,0014.45
2022-02-25 16:22:00,,0830.5,4.99,0.00,21.7,21.0,00.0,30.7,23.4,06.8,0000.7,0022.09,0015.56,0014.75
2022-02-25 16:23:00,,0830.5,5.00,0.00,21.7,20.9,00.0,30.7,23.4,06.8,0000.9,0022.98,0015.86,0015.04
2022-02-25 16:24:00,,0830.6,4.99,0.00,21.7,20.9,00.0,30.7,23.4,06.8,0001.1,0023.44,0016.10,0015.25
2022-02-25 16:25:00,,0830.5,5.00,0.00,21.7,20.9,00.0,30.7,23.4,06.9,0000.9,0023.55,0016.35,0015.51
2022-02-25 16:26:00,,0830.6,5.00,0.00,21.7,21.0,00.0,30.7,23.5,07.1,0000.4,0023.89,0016.64,0015.77
2022-02-25 16:27:00,,0830.5,5.00,0.00,21.7,21.0,00.0,30.7,23.5,06.9,0000.4,0024.05,0016.83,0015.97
2022-02-25 16:28:00,,0830.5,5.00,0.00,21.7,21.0,00.0,30.7,23.5,06.8,0000.3,0024.13,0016.90,0016.07
2022-02-25 16:29:00,,0830.6,5.00,0.00,21.7,20.9,00.0,30.7,23.4,06.7,0000.3,0024.18,0016.87,0016.06
2022-02-25 16:30:00,,0830.5,4.98,0.00,21.7,20.8,00.0,30.7,23.3,06.7,-000.1,0024.10,0016.86,0016.05
2022-02-25 16:31:00,,0830.5,5.00,0.00,21.7,20.8,00.0,30.7,23.3,06.8,-000.3,0023.52,0016.78,0015.99
2022-02-25 16:32:00,,0830.5,5.01,0.00,21.6,20.7,00.0,30.6,23.2,06.9,-000.5,0023.52,0016.62,0015.84
2022-02-25 16:33:00,,0830.4,5.00,0.00,21.6,20.7,00.0,30.6,23.2,06.8,-000.6,0022.74,0016.41,0015.67
2022-02-25 16:34:00,,0830.5,5.01,0.00,21.6,20.6,00.0,30.6,23.2,06.8,-000.8,0022.05,0016.27,0015.56
2022-02-25 16:35:00,,0830.5,5.01,0.00,21.6,20.7,00.0,30.6,23.3,06.8,-000.8,0021.90,0016.28,0015.54
2022-02-25 16:36:00,,0830.5,5.00,0.00,21.6,20.9,00.0,30.6,23.3,06.8,-000.6,0022.04,0016.26,0015.52
2022-02-25 16:37:00,,0830.5,5.00,0.00,21.6,20.9,00.0,30.6,23.4,06.8,-000.5,0022.62,0016.23,0015.50
2022-02-25 16:38:00,,0830.6,5.00,0.00,21.6,21.0,00.0,30.6,23.4,06.8,-000.7,0022.72,0016.31,0015.59
2022-02-25 16:39:00,,0830.4,5.01,0.00,21.7,21.0,00.0,30.6,23.4,06.8,-001.0,0023.10,0016.42,0015.67
2022-02-25 16:40:00,,0830.3,4.99,0.00,21.7,21.1,00.0,30.6,23.5,06.8,-001.1,0023.38,0016.49,0015.72
2022-02-25 16:41:00,,0830.4,4.99,0.00,21.7,21.1,00.0,30.6,23.5,06.8,-001.1,0023.84,0016.50,0015.73
2022-02-25 16:42:00,,0830.4,5.01,0.00,21.7,21.1,00.0,30.6,23.5,06.9,-001.0,0023.90,0016.52,0015.76
2022-02-25 16:43:00,,0830.4,5.01,0.00,21.7,21.1,00.0,30.6,23.5,06.8,-001.0,0023.85,0016.69,0015.93
2022-02-25 16:44:00,,0830.6,4.98,0.00,21.7,21.1,00.0,30.6,23.5,06.8,-001.1,0023.83,0016.85,0016.11
2022-02-25 16:45:00,,0830.3,5.01,0.00,21.7,21.3,00.0,30.6,23.5,06.8,-000.9,0024.07,0017.01,0016.27
2022-02-25 16:46:00,,0830.3,5.00,0.00,21.9,22.5,00.0,30.7,23.8,06.7,-000.9,0024.71,0017.12,0016.36
2022-02-25 16:47:00,,0830.4,4.99,0.00,22.0,23.4,00.0,30.7,24.1,06.8,-000.7,0024.63,0017.11,0016.38
2022-02-25 16:48:00,,0830.4,5.01,0.00,22.2,23.3,00.0,30.8,24.2,06.8,-000.8,0024.26,0017.20,0016.45
2022-02-25 16:49:00,,0830.4,5.00,0.00,22.2,23.0,00.0,30.8,24.3,06.8,-000.6,0024.19,0017.34,0016.55
2022-02-25 16:50:00,,0830.5,5.00,0.00,22.3,22.8,00.0,30.9,24.3,06.7,-000.4,0024.22,0017.41,0016.60
2022-02-25 16:51:00,,0830.5,4.99,0.00,22.3,22.6,00.0,30.9,24.3,06.7,-000.2,0023.83,0017.45,0016.67
2022-02-25 16:52:00,,0830.5,4.99,0.00,22.3,22.4,00.0,30.9,24.2,06.6,-000.0,0023.77,0017.56,0016.78
2022-02-25 16:53:00,,0830.5,4.99,0.00,22.3,22.1,00.0,31.0,24.2,06.6,0000.0,0023.69,0017.64,0016.84
2022-02-25 16:54:00,,0830.4,5.00,0.00,22.3,21.9,00.0,31.0,24.1,06.7,0000.1,0023.75,0017.64,0016.82
2022-02-25 16:55:00,,0830.4,5.00,0.00,22.3,21.8,00.0,31.0,24.1,06.6,0000.0,0023.90,0017.64,0016.76
2022-02-25 16:56:00,,0830.5,5.00,0.00,22.3,21.8,00.0,31.0,24.1,06.6,-000.1,0023.97,0017.62,0016.70
2022-02-25 16:57:00,,0830.5,5.01,0.00,22.3,21.8,00.0,31.0,24.1,06.7,-000.2,0023.38,0017.51,0016.63
2022-02-25 16:58:00,,0830.5,5.00,0.00,22.3,21.8,00.0,31.0,24.1,06.7,-000.6,0023.23,0017.42,0016.55
2022-02-25 16:59:00,,0830.5,4.99,0.00,22.3,21.8,00.0,31.0,24.1,06.6,-000.5,0022.95,0017.23,0016.40
